Weather WX

World > North America > United States > Minnesota

Wilpen, Minnesota Regional Weather

Lat: 47.44N, Lon: 92.83W
Wx Zone: MNZ019
Warning FLW WEATHER ALERT - (More Info. Click Here) Warning
Feedback

Wilpen, MN Regional Weather

Expires:201906251800;;062089
ASUS43 KMPX 251710
RWRMN 
WEATHER ROUNDUP FOR MINNESOTA
NATIONAL WEATHER SERVICE TWIN CITIES/CHANHASSEN MN
1200 PM CDT TUE JUN 25 2019


NOTE: "FAIR" INDICATES FEW OR NO CLOUDS BELOW 12,000 FEET WITH NO
SIGNIFICANT WEATHER AND/OR OBSTRUCTIONS TO VISIBILITY. N/A MEANS
CURRENT SKY AND/OR WEATHER CONDITIONS ARE NOT AVAILABLE.


MNZ012-019>021-037-251800-
   Northeast Minnesota   
  
CITY           SKY/WX    TMP DP  RH WIND       PRES   REMARKS
DULUTH         FAIR      74  57  55 W15       29.66R                  
ELY            FAIR      66  57  72 SW7       29.62S                  
HIBBING        CLOUDY    68  57  68 W12G20    29.65R                  
EVELETH        PTSUNNY   70  57  63 W12G17    29.65S                  
SILVER BAY     FAIR      73  55  53 W6        29.60S                  
GRAND MARAIS     N/A     52  48  86 W10       29.58R                  
G MARAIS ARPRT FAIR      72  52  49 SW7       29.60S                  
$$

SKY/WX - Weather  TMP - Temperature  DP - Dew Point  RH - Relative Humidity
WIND - Wind Direction/Speed PRES - Barometric Pressure VSB - Visibility
WCI - Wind Chill Index E13G22 Wind - East Wind 13 mph/Gusts of 22 mph